Location: Aalen
(48.8330°N, 10.1000°E)
Time: 00:44:00
(UTC+02:00)

M-CUBED/EXP-1 PRIME - Pass Details

Date: 22 September 2021
Orbit: 427 x 655 km, 101.7° (Epoch: 19 October)

Event Time Altitude Azimuth Distance (km) Brightness Sun altitude
Rises 06:24:17 0° 14° (NNE) 2,463 ? -7.7°
Reaches altitude 10° 06:26:24 10° 7° (N) 1,565 ? -7.4°
Maximum altitude 06:29:33 43° 295° (WNW) 626 ? -6.8°
Drops below altitude 10° 06:32:37 10° 223° (SW) 1,522 ? -6.3°
Sets 06:34:38 0° 216° (SW) 2,384 ? -6.0°
